Weather History for 78762 - July, 2013

Change the Weather History Date:

Sunday, July 21, 2013

  Actual Average Record
Temperature  
Mean Temperature 73 °F -  
Max Temperature 80 °F 80 °F - ()
Min Temperature 66 °F 64 °F - ()
Cooling Degree Days 8    
Growing Degree Days 23 (Base 50)    
Moisture  
Dew Point 67 °F    
Average Humidity 86    
Maximum Humidity 100    
Minimum Humidity 47    
Precipitation  
Precipitation 0.59 in 0.33 in - ()
Sea Level Pressure  
Sea Level Pressure 29.96 in    
Wind  
Wind Speed 3 mph ()    
Max Wind Speed 12 mph    
Max Gust Speed -    
Visibility 4.9 miles    
Events Fog , Rain , Thunderstorm    
T = Trace of Precipitation, MM = Missing Value Source: Averaged Metar Reports

Daily Weather History Graph

Daily Weather History Graph

Search for Another Location

Airport or City:

Trip Planner

Search our weather history database for the weather conditions in past years. The results will help you decide how hot, cold, wet, or windy it might be!

Date:

Astronomy

Jul. 21, 2013 Rise Set
Actual Time 5:24 AM CST 6:01 PM CST
Civil Twilight 5:02 AM CST 6:24 PM CST
Nautical Twilight 4:35 AM CST 6:50 PM CST
Astronomical Twilight 4:08 AM CST 7:17 PM CST
Moon 5:06 PM CST (7/21) 4:06 AM CST (7/21)
Length of Visible Light 13h 22m
Length of Day
12h 37m
Waxing Gibbous, 98% of the Moon is Illuminated
Jul 21
Waxing Gibbous
Jul 22
Full
Jul 29
Last Quarter
Aug 6
New
Aug 14
First Quarter

Hourly Weather History & Observations

Time (CST) Temp. Heat Index Dew Point Humidity Pressure Visibility Wind Dir Wind Speed Gust Speed Precip Events Conditions
12:00 AM 69 °F - 68 °F 95% 29.89 in 5 mi NW 2.3 mph - -   Partly Cloudy
12:00 AM 69.8 °F - 68.0 °F 94% 30.01 in 5.0 mi NW 2.3 mph - N/A Fog Fog
1:00 AM 68.0 °F - 68.0 °F 100% 30.00 in 5.0 mi Calm Calm - N/A Fog Fog
2:00 AM 69.8 °F - 68.0 °F 94% 29.96 in 5.0 mi NNE 2.3 mph - N/A Fog Fog
3:00 AM 68 °F - 67 °F 97% 29.82 in 0 mi Calm Calm - - Fog Heavy Fog
3:00 AM 68.0 °F - 68.0 °F 100% 29.96 in 0.3 mi Calm Calm - N/A Fog Fog
3:10 AM 68.0 °F - 66.2 °F 94% 29.96 in 6.2 mi Calm Calm - N/A   Scattered Clouds
4:00 AM 68.0 °F - 66.2 °F 94% 29.94 in 0.3 mi WSW 2.3 mph - N/A Fog Fog
4:33 AM 68.0 °F - 66.2 °F 94% 29.95 in 5.0 mi North 2.3 mph - N/A Fog Fog
5:00 AM 68.0 °F - 66.2 °F 94% 29.99 in 5.0 mi Calm Calm - N/A Fog Fog
6:00 AM 67 °F - 66 °F 95% 29.85 in 5 mi Calm Calm - - Fog Light Fog
6:00 AM 68.0 °F - 66.2 °F 94% 29.99 in 5.0 mi Calm Calm - N/A Fog Fog
7:00 AM 69.8 °F - 64.4 °F 83% 29.99 in 6.2 mi NE 5.8 mph - N/A Fog Mostly Cloudy
8:00 AM 73.4 °F - 62.6 °F 69% 29.99 in - East 11.5 mph - N/A   Clear
9:00 AM 77 °F - 64 °F 54% 29.86 in 12 mi ESE 5.8 mph - -   Clear
9:00 AM 77.0 °F - 55.4 °F 47% 30.01 in - ESE 5.8 mph - N/A   Clear
9:36 AM 78.8 °F - 66.2 °F 65% 30.01 in 6.2 mi SW 6.9 mph - N/A   Mostly Cloudy
10:00 AM 80.6 °F 83.2 °F 68.0 °F 65% 30.01 in - WSW 6.9 mph - N/A   Mostly Cloudy
11:00 AM 78.8 °F - 68.0 °F 69% 29.98 in 6.2 mi WSW 11.5 mph - N/A   Mostly Cloudy
12:00 PM 79 °F - 67 °F 58% 29.83 in 12 mi WSW 8.1 mph - -   Overcast
12:00 PM 78.8 °F - 66.2 °F 65% 29.98 in 6.2 mi WSW 8.1 mph - N/A   Mostly Cloudy
1:00 PM 73.4 °F - 66.2 °F 78% 29.97 in 6.2 mi WSW 6.9 mph - N/A Rain , Thunderstorm Light Thunderstorms and Rain
2:00 PM 75.2 °F - 68.0 °F 78% 29.95 in 6.2 mi WNW 5.8 mph - N/A   Mostly Cloudy
3:00 PM 76 °F - 69 °F 75% 29.76 in 9 mi WSW 10.4 mph - -   Mostly Cloudy
3:00 PM 75.2 °F - 69.8 °F 83% 29.93 in 6.2 mi WSW 10.4 mph - N/A   Mostly Cloudy
3:45 PM 71.6 °F - 69.8 °F 94% 29.95 in 1.2 mi SW 10.4 mph - N/A Fog Mostly Cloudy
4:00 PM 69.8 °F - 69.8 °F 100% 29.95 in 0.3 mi SW 8.1 mph - N/A Fog Fog
4:10 PM 69.8 °F - 68.0 °F 94% 29.95 in 0.7 mi WSW 8.1 mph - N/A   Mostly Cloudy
4:30 PM 69.8 °F - 66.2 °F 88% 29.95 in 4.3 mi West 8.1 mph - N/A Fog Patches of Fog
5:00 PM 69.8 °F - 66.2 °F 88% 29.96 in 5.0 mi WSW 3.5 mph - N/A Fog Mostly Cloudy
6:00 PM 70 °F - 66 °F 85% 29.83 in 9 mi Calm Calm - -   Overcast
6:00 PM 69.8 °F - 66.2 °F 88% 29.98 in 6.2 mi Calm Calm - N/A   Mostly Cloudy
7:00 PM 68.0 °F - 68.0 °F 100% 30.00 in 6.2 mi WSW 3.5 mph - N/A   Mostly Cloudy
7:40 PM 69.8 °F - 68.0 °F 94% 30.02 in 6.2 mi Calm Calm - N/A Rain Rain
8:00 PM 69.8 °F - 68.0 °F 94% 30.03 in 6.2 mi West 2.3 mph - N/A Rain Rain
8:13 PM 69.8 °F - 68.0 °F 94% 30.03 in 1.2 mi SSW 2.3 mph - N/A Rain Light Rain
9:00 PM 69 °F - 68 °F 95% 29.88 in 1 mi SW 3.5 mph - - Rain Light Drizzle
9:00 PM 69.8 °F - 68.0 °F 94% 30.05 in 1.2 mi SW 3.5 mph - N/A   Light Drizzle
9:40 PM 68.0 °F - 66.2 °F 94% 30.06 in - North - - N/A Rain Rain
10:00 PM 68.0 °F - 66.2 °F 94% 30.07 in 3.1 mi East 3.5 mph - N/A Rain Rain
11:00 PM 66.2 °F - 66.2 °F 100% 30.06 in 5.0 mi NNE 3.5 mph - N/A Rain Light Rain